SCP
0 0 0 0 0 0 0 0 0 0 0 0 0 0 0 0 0 0 0 0 0 0 0 1 1 1 1 1 1 1 1 1 1 1 1 1 1 1 1 1 1 1 1 1
0 0 0 0 0 0 0 0 0 0 0 0 0 0 0 0 0 0 0 0 0 0 0 1 1 1 1 1 1 1 1 1 1 1 1 1 1 1 1 1 1 1 1 1
0 0 0 0 0 0 0 0 0 0 0 0 0 0 0 0 0 0 0 0 0 0 0 1 1 1 1 1 2 1 1 0 1 1 1 1 1 2 2 2 2 2 1 1
0 0 0 0 0 0 0 0 0 0 0 0 0 0 0 0 0 0 0 0 0 0 0 1 1 1 1 1 1 1 1 0 1 1 1 1 1 2 2 2 2 2 1 1
0 0 0 0 0 0 0 0 0 0 0 0 0 0 0 0 0 0 0 0 0 0 0 0 0 1 1 1 1 1 0 0 1 1 1 1 1 1 1 1 1 1 1 1
0 0 0 0 0 0 0 0 0 0 0 0 0 0 0 0 0 0 0 0 0 0 0 0 0 0 0 0 0 0 0 0 0 1 1 1 1 1 1 1 1 1 1 1
0 0 0 0 0 0 0 0 0 0 0 0 0 0 0 0 0 0 0 0 0 1 0 0 0 0 0 0 0 0 0 0 0 0 0 0 0 0 1 1 1 1 1 1
0 0 0 0 0 0 0 0 0 0 0 0 0 0 0 0 0 0 0 0 0 0 0 0 0 0 0 0 0 0 0 0 0 0 0 0 0 0 0 0 0 0 0 0
0 0 0 0 0 0 0 0 0 0 0 0 0 0 0 0 0 0 0 0 0 0 0 0 0 0 0 0 0 0 0 0 0 0 0 0 0 0 0 0 0 0 0 0
0 0 0 0 0 0 0 0 0 0 0 0 0 0 0 0 0 0 0 0 0 0 0 0 0 0 0 0 0 0 0 0 0 0 0 0 0 0 0 0 0 0 0 0
0 0 0 0 0 0 0 0 0 0 0 0 0 0 0 0 0 0 0 0 0 0 0 0 0 0 0 0 0 0 0 0 0 0 0 0 0 0 0 0 0 0 0 0
0 0 0 0 0 0 0 0 0 0 0 0 0 0 0 0 0 0 0 0 0 0 0 0 0 0 0 0 0 0 0 0 0 0 0 0 0 0 0 0 0 0 0 0
0 0 0 0 0 0 0 0 0 0 0 0 0 0 0 0 0 0 0 0 0 0 0 0 0 0 0 0 0 0 0 0 0 0 0 0 0 0 0 0 0 0 0 0
0 0 0 0 0 0 0 0 0 0 0 0 0 0 0 0 0 0 0 0 0 0 0 0 0 0 0 0 0 0 0 0 0 0 0 0 0 0 0 0 0 0 0 0
0 0 0 0 0 0 0 0 0 0 0 0 0 0 0 0 0 0 0 0 0 0 0 0 0 0 0 0 0 0 0 0 0 0 0 0 0 0 0 0 0 0 0 0
0 0 0 0 0 0 0 0 0 0 0 0 0 0 0 0 0 0 0 0 0 0 0 0 0 0 0 0 0 0 0 0 0 0 0 0 0 0 0 0 0 0 0 0
0 0 0 0 0 0 0 0 0 0 0 0 0 0 0 0 0 0 0 0 0 0 0 0 0 0 0 0 0 0 0 0 0 0 0 0 0 0 0 0 0 0 0 0
0 0 0 0 0 0 0 0 0 0 0 0 0 0 0 0 0 0 0 0 0 0 0 0 0 0 0 0 0 0 0 0 0 0 0 0 0 0 0 0 0 0 0 0
0 0 0 0 0 0 0 0 0 0 0 0 0 0 0 0 0 0 0 0 0 0 0 0 0 0 0 0 0 0 0 0 0 0 0 0 0 0 0 0 0 0 0 0
0 0 0 0 0 0 0 0 0 0 0 0 0 0 0 0 0 0 0 0 0 0 0 0 0 0 0 0 0 0 0 0 0 0 0 0 0 0 0 0 0 0 0 0
0 0 0 0 0 0 0 0 0 0 0 0 0 0 0 0 0 0 0 0 0 0 0 0 0 0 0 0 0 0 0 0 0 0 0 0 0 0 0 0 0 0 0 0
0 0 0 0 0 0 0 0 0 0 0 0 0 0 0 0 0 0 0 0 0 0 0 0 0 0 0 0 0 0 0 0 0 0 0 0 0 0 0 0 0 0 0 0
0 0 0 0 0 0 0 0 0 0 0 0 0 0 0 0 0 0 0 0 0 0 0 0 0 0 0 0 0 0 0 0 0 0 0 0 0 0 0 0 0 0 0 0
0 0 0 0 0 0 0 0 0 0 0 0 0 0 0 0 0 0 0 0 0 0 0 0 0 0 0 0 0 0 0 0 0 0 0 0 0 0 0 0 0 0 0 0
0 0 0 0 0 0 0 0 0 0 0 0 0 0 0 0 0 0 0 0 0 0 0 0 0 0 0 0 0 0 0 0 0 0 0 0 0 0 0 0 0 0 0 0
0 0 0 0 0 0 0 0 0 0 0 0 0 0 0 0 0 0 0 0 0 0 0 0 0 0 0 0 0 0 0 0 0 0 0 0 0 0 0 0 0 0 0 0
Wind_Speed
5 5 7 8 10 12 11 12 13 12 8 7 9 12 11 9 7 6 5 4 5 5 4 2 3 4 4 5 5 5 5 4 4 4 4 5 5 5 4 4 5 6 5 5
3 9 12 11 10 10 12 12 12 10 7 5 7 10 8 6 6 4 4 4 4 4 2 2 2 3 4 4 4 4 4 4 4 4 4 4 4 3 4 4 4 5 4 5
8 7 6 8 9 10 11 10 9 9 7 5 5 5 4 3 1 1 1 1 1 1 2 2 2 3 3 3 2 3 4 4 4 4 3 3 3 2 2 3 3 4 4 4
7 8 8 8 8 7 8 6 8 9 5 3 3 2 3 3 2 2 1 1 2 2 2 3 2 3 3 2 2 2 4 4 3 3 4 5 5 4 4 3 3 4 4 4
4 3 4 6 6 6 5 6 7 6 4 3 3 1 3 4 4 4 4 3 3 3 3 4 4 4 3 3 2 2 3 3 2 4 5 4 3 2 3 3 4 3 3 3
7 3 3 4 5 5 5 5 6 4 2 2 1 1 3 5 6 5 6 6 5 4 6 7 7 7 6 5 4 3 4 3 2 4 4 4 4 3 3 3 3 3 2 2
3 3 3 3 4 2 2 3 2 2 1 1 3 4 4 6 7 6 6 6 7 8 8 8 8 8 8 7 7 5 5 4 4 3 3 3 2 3 4 3 3 2 2 2
1 0 1 2 2 2 3 2 3 2 1 2 4 5 4 6 7 7 8 9 10 11 10 10 9 9 8 8 7 7 7 7 5 4 3 2 2 2 1 2 2 3 2 3
2 1 0 2 2 3 3 2 3 3 0 3 4 4 4 7 9 10 10 11 12 11 11 10 10 10 9 9 9 8 8 8 7 6 5 4 3 2 1 0 1 1 1 2
2 0 1 1 2 3 4 4 3 2 2 4 5 5 4 5 7 9 10 11 10 10 10 10 10 10 9 9 9 9 9 8 8 7 5 4 4 2 1 1 1 0 1 1
2 1 1 0 2 3 3 3 4 2 2 1 4 4 4 5 6 7 9 9 9 9 9 8 8 8 9 10 10 10 9 9 8 7 6 6 5 4 3 2 1 0 0 1
2 1 0 1 1 2 3 5 4 3 4 4 5 4 3 6 7 8 8 8 8 8 7 8 7 8 9 9 9 9 9 9 8 7 6 5 5 5 4 3 2 1 0 1
4 2 1 0 0 2 2 5 5 3 3 4 5 4 3 6 7 7 7 7 7 7 7 7 7 8 8 8 8 8 8 8 8 7 7 6 6 6 5 4 4 3 1 0
3 3 3 3 2 2 3 6 7 4 3 4 6 7 4 6 7 6 6 6 6 6 7 7 7 7 7 7 7 8 8 8 8 7 7 7 6 6 5 4 4 3 2 1
1 2 3 3 3 3 5 6 7 7 5 5 7 7 6 5 5 5 5 6 6 6 6 7 6 6 6 7 7 7 7 7 7 7 7 6 6 5 5 4 4 3 3 2
1 1 1 1 2 3 5 7 6 6 6 7 8 6 5 6 5 5 4 5 5 5 6 6 6 6 6 6 6 6 6 6 6 6 6 6 6 6 5 5 4 4 3 3
2 1 2 1 1 1 3 4 4 4 4 3 4 5 6 5 5 4 3 4 4 4 4 5 5 5 5 5 5 5 5 5 6 6 6 6 6 6 6 6 5 5 4 3
2 1 1 1 2 1 1 1 2 3 4 4 5 6 5 5 4 3 4 4 4 4 4 4 4 4 4 4 4 5 5 5 5 5 5 6 6 6 6 5 6 6 5 4
4 2 1 1 1 2 3 1 1 1 1 3 4 5 5 4 3 3 4 5 4 4 3 3 3 3 4 4 4 5 5 5 5 6 6 6 6 7 7 6 6 5 5 5
2 2 2 1 2 1 3 3 1 1 1 3 4 5 4 2 1 1 3 4 4 4 3 3 3 3 3 4 4 4 5 5 6 6 6 6 6 7 7 7 6 5 5 6
1 1 1 1 1 0 3 2 1 1 2 3 4 4 3 2 2 3 4 3 2 2 2 2 3 3 3 3 3 4 5 5 5 6 6 7 7 7 7 6 6 6 6 6
1 1 1 1 2 3 4 3 1 2 3 3 4 4 4 4 4 3 2 1 1 1 2 2 2 3 3 3 3 5 5 5 5 6 6 7 7 7 6 6 6 6 6 6
2 1 1 1 2 2 3 2 3 3 3 3 3 4 4 3 2 1 1 0 1 2 2 2 3 4 4 4 4 5 6 5 5 6 7 7 7 7 6 6 7 6 5 5
2 2 1 3 2 4 4 4 3 3 3 4 4 4 3 2 1 0 0 1 2 2 2 2 4 5 5 5 5 5 6 5 6 7 7 7 7 7 6 6 5 5 5 6
2 5 3 4 2 3 4 5 5 4 4 4 3 3 2 1 0 0 1 2 2 2 2 3 4 5 6 6 6 6 6 6 6 7 7 7 7 7 6 6 6 6 6 7
6 7 6 5 4 4 3 5 6 6 4 4 3 2 1 1 1 1 2 2 2 3 4 4 5 6 7 7 7 7 6 6 6 6 7 6 6 6 6 6 7 10 11 15
Wind_Direction
195 228 238 242 239 253 282 285 286 288 282 259 254 261 266 258 246 233 217 222 235 242 230 169 168 159 145 144 153 170 165 180 181 177 174 165 168 170 166 163 159 161 162 164
234 243 252 262 267 266 269 275 283 291 285 276 265 268 269 266 245 219 209 217 219 231 191 140 129 138 133 140 153 154 165 173 185 183 177 165 155 160 154 150 153 153 155 155
235 260 277 265 261 262 265 265 274 284 309 288 273 282 288 284 243 198 202 200 217 209 145 137 133 123 113 125 148 163 164 173 187 176 147 146 139 133 138 151 155 153 153 148
253 260 268 269 267 265 274 268 272 281 286 284 263 284 357 357 25 41 56 71 74 66 91 108 103 109 106 127 139 154 163 156 166 143 138 156 155 159 161 159 150 143 143 148
263 276 271 265 267 261 264 297 285 281 275 278 262 226 356 5 25 35 48 53 65 66 74 82 79 75 78 79 95 121 126 129 159 143 144 145 149 152 140 140 146 150 151 164
252 259 275 279 280 256 275 295 278 251 244 286 323 110 31 1 1 17 35 43 52 76 76 72 65 65 61 54 57 83 110 103 102 121 131 141 155 155 148 152 159 168 165 178
259 212 215 257 288 253 259 298 269 207 178 46 40 67 39 4 12 25 39 52 52 65 66 64 59 58 55 52 48 55 83 87 80 97 114 136 155 165 168 170 173 178 178 188
291 334 213 226 273 288 261 255 305 330 100 104 56 56 32 23 29 43 55 58 55 54 54 56 53 53 52 50 47 51 57 59 62 73 86 107 135 151 148 164 177 193 197 201
340 21 272 250 268 295 304 278 263 291 357 91 82 95 70 38 44 51 56 56 56 54 51 52 49 46 46 48 44 46 48 46 41 40 41 43 49 67 87 135 161 181 208 198
319 345 285 255 256 250 254 296 310 321 11 94 101 70 33 29 42 51 53 53 53 54 53 51 49 46 46 45 43 46 46 43 37 35 30 29 28 27 21 57 85 183 222 190
278 327 341 19 1 333 327 322 304 298 315 81 93 61 43 67 66 66 67 62 58 56 55 54 52 47 47 46 42 39 37 36 31 27 26 27 21 15 12 19 15 338 236 201
311 303 321 199 185 273 316 342 334 359 352 44 92 80 49 82 81 75 74 71 67 61 58 56 53 49 47 45 40 36 32 29 22 17 23 26 20 14 12 11 7 10 209 209
321 331 332 148 93 318 340 354 350 356 12 41 90 113 101 93 88 81 77 73 70 64 59 54 50 46 42 39 35 32 28 22 13 11 16 18 17 15 10 4 357 350 335 254
306 19 40 61 39 2 4 9 10 29 49 60 89 122 127 105 100 93 85 79 72 62 56 51 47 45 40 35 31 27 22 16 9 8 13 14 7 4 1 355 351 344 336 311
318 55 47 62 59 42 38 27 25 31 33 83 111 114 126 116 107 98 92 85 75 64 55 49 46 41 36 30 24 21 16 10 4 6 8 3 355 353 354 350 342 335 326 303
4 91 47 63 86 73 50 30 35 36 47 89 102 93 106 107 97 91 87 82 72 62 53 46 42 38 32 27 18 12 7 0 358 360 358 352 350 349 346 340 332 325 313 295
10 39 22 14 303 288 47 22 28 52 42 61 93 112 120 112 105 99 93 91 81 65 54 46 37 29 21 17 12 3 354 350 352 351 349 350 348 343 338 333 328 319 307 295
358 33 88 323 340 32 115 43 34 68 56 57 84 103 109 108 104 89 80 73 66 53 39 33 25 17 11 8 5 354 348 348 347 346 345 345 341 333 327 324 320 315 309 297
355 344 354 344 303 166 142 149 44 53 97 98 113 110 97 96 98 82 72 68 65 57 46 30 15 1 358 358 358 350 342 343 342 340 338 334 329 324 321 315 308 304 299 294
308 326 351 340 331 337 132 118 62 1 161 121 119 123 123 128 155 154 90 72 61 50 38 19 358 352 349 347 350 337 327 329 326 324 322 319 314 310 306 301 296 291 285 280
313 308 316 293 286 99 120 132 155 175 169 128 113 118 125 109 103 103 82 70 61 42 15 358 344 333 323 326 325 311 308 304 302 306 306 305 303 299 295 293 291 289 284 280
268 245 230 234 251 239 149 156 171 145 120 111 102 101 101 98 95 88 80 64 31 0 338 335 321 305 299 299 298 294 291 291 299 303 300 298 295 294 295 292 291 288 286 283
251 306 311 259 202 138 156 118 99 100 116 108 103 98 107 114 121 117 106 337 317 316 317 317 308 301 298 296 295 292 291 298 301 300 296 295 295 293 292 288 288 287 281 280
186 125 266 279 220 166 166 146 131 110 108 101 100 103 110 123 125 125 281 290 298 304 306 308 305 299 296 298 295 288 292 297 296 293 293 293 295 294 293 290 284 282 280 280
196 164 220 255 220 159 187 177 158 138 121 115 109 106 108 113 122 292 290 293 300 304 305 305 298 293 293 297 296 294 294 294 291 289 289 290 289 289 290 287 281 281 271 276
196 183 189 220 191 170 170 157 148 149 155 151 143 136 119 127 264 299 295 300 307 306 304 298 292 291 295 298 295 294 291 289 288 290 291 290 290 288 286 288 289 282 281 289